FDX40C KSEA-KLAX

Flight info

Callsign FDX40C
Flight time 2h 12m
Altitude 41000
Route SUMMA2 SUMMA JINMO Q7 JAGWA BURGL IRNMN2
Aircraft MD11/H-SDE1E2E3FGHIJ2J3J4J5M1RWXY/LB1D1

Departure

Time 2026-04-25 02:54
Airport Seattle–Tacoma International Airport (KSEA)

Arrival

Time 2026-04-25 05:07
Airport Los Angeles International Airport (KLAX)
Time Latitude Longitude Altitude Speed Heading
2026-04-25 02:26 47.46102 -122.30082 455 ft 0 kts 180°
2026-04-25 02:40 47.46108 -122.30081 454 ft 4 kts 179°
2026-04-25 02:40 47.46135 -122.30084 453 ft 4 kts 178°
2026-04-25 02:40 47.46154 -122.30082 452 ft 2 kts 213°
2026-04-25 02:40 47.46172 -122.30062 452 ft 4 kts 246°
2026-04-25 02:41 47.46175 -122.30030 452 ft 4 kts 276°
2026-04-25 02:41 47.46174 -122.30007 452 ft 1 kts 270°
2026-04-25 02:41 47.46174 -122.30005 452 ft 0 kts 270°
2026-04-25 02:45 47.46174 -122.30028 452 ft 8 kts 270°
2026-04-25 02:45 47.46174 -122.30157 452 ft 13 kts 270°
2026-04-25 02:45 47.46183 -122.30283 453 ft 12 kts 275°
2026-04-25 02:45 47.46184 -122.30388 453 ft 10 kts 271°
2026-04-25 02:46 47.46185 -122.30518 451 ft 14 kts 271°
2026-04-25 02:46 47.46161 -122.30605 447 ft 6 kts 212°
2026-04-25 02:46 47.46101 -122.30619 448 ft 9 kts 181°
2026-04-25 02:46 47.46033 -122.30619 448 ft 12 kts 180°
2026-04-25 02:47 47.45931 -122.30620 447 ft 15 kts 180°
2026-04-25 02:47 47.45823 -122.30620 432 ft 17 kts 180°
2026-04-25 02:47 47.45701 -122.30621 431 ft 18 kts 180°
2026-04-25 02:47 47.45572 -122.30622 433 ft 19 kts 180°
2026-04-25 02:48 47.45432 -122.30625 433 ft 21 kts 180°
2026-04-25 02:48 47.45288 -122.30625 424 ft 17 kts 179°
2026-04-25 02:48 47.45156 -122.30625 418 ft 20 kts 180°
2026-04-25 02:48 47.45008 -122.30627 414 ft 22 kts 180°
2026-04-25 02:49 47.44869 -122.30629 407 ft 16 kts 180°
2026-04-25 02:49 47.44748 -122.30631 411 ft 18 kts 180°
2026-04-25 02:49 47.44619 -122.30633 405 ft 19 kts 180°
2026-04-25 02:49 47.44478 -122.30633 404 ft 21 kts 180°
2026-04-25 02:50 47.44329 -122.30634 395 ft 22 kts 180°
2026-04-25 02:50 47.44171 -122.30635 394 ft 24 kts 180°
2026-04-25 02:50 47.44013 -122.30636 392 ft 18 kts 180°
2026-04-25 02:50 47.43884 -122.30637 388 ft 19 kts 180°
2026-04-25 02:51 47.43755 -122.30638 384 ft 15 kts 180°
2026-04-25 02:51 47.43647 -122.30627 380 ft 16 kts 165°
2026-04-25 02:51 47.43545 -122.30565 378 ft 15 kts 171°
2026-04-25 02:51 47.43440 -122.30559 376 ft 16 kts 179°
2026-04-25 02:52 47.43325 -122.30559 372 ft 17 kts 180°
2026-04-25 02:52 47.43231 -122.30579 370 ft 13 kts 203°
2026-04-25 02:52 47.43183 -122.30643 367 ft 4 kts 243°
2026-04-25 02:52 47.43181 -122.30655 366 ft 6 kts 251°
2026-04-25 02:53 47.43183 -122.30752 368 ft 9 kts 293°
2026-04-25 02:53 47.43221 -122.30797 368 ft 6 kts 338°
2026-04-25 02:53 47.43256 -122.30803 370 ft 8 kts 359°
2026-04-25 02:53 47.43504 -122.30801 376 ft 84 kts
2026-04-25 02:54 47.44426 -122.30800 463 ft 168 kts
2026-04-25 02:54 47.45569 -122.30781 1652 ft 159 kts 359°
2026-04-25 02:54 47.46629 -122.30782 3135 ft 147 kts 359°
2026-04-25 02:54 47.47705 -122.30805 4259 ft 168 kts 358°
2026-04-25 02:55 47.48974 -122.30844 5077 ft 195 kts 358°
2026-04-25 02:55 47.50445 -122.30863 5766 ft 230 kts 359°
2026-04-25 02:55 47.52129 -122.30878 6442 ft 259 kts 359°
2026-04-25 02:55 47.54050 -122.30918 7261 ft 275 kts 359°
2026-04-25 02:56 47.55938 -122.30953 8765 ft 278 kts 356°
2026-04-25 02:56 47.57871 -122.31136 9143 ft 279 kts
2026-04-25 02:56 47.59781 -122.30640 9509 ft 281 kts 22°
2026-04-25 02:56 47.61339 -122.28925 10608 ft 287 kts 46°
2026-04-25 02:57 47.62411 -122.26268 10868 ft 328 kts 70°
2026-04-25 02:57 47.62713 -122.22725 11456 ft 354 kts 94°
2026-04-25 02:57 47.62091 -122.19221 12541 ft 363 kts 112°
2026-04-25 02:57 47.60658 -122.16092 13581 ft 375 kts 131°
2026-04-25 02:58 47.58537 -122.13708 14493 ft 389 kts 150°
2026-04-25 02:58 47.55959 -122.12369 15366 ft 401 kts 169°
2026-04-25 02:58 47.53143 -122.12143 16146 ft 411 kts 182°
2026-04-25 02:58 47.50257 -122.12506 16908 ft 419 kts 186°
2026-04-25 02:59 47.47338 -122.13041 17671 ft 428 kts 188°
2026-04-25 02:59 47.44357 -122.13644 18449 ft 434 kts 188°
2026-04-25 02:59 47.41350 -122.14265 19213 ft 439 kts 188°
2026-04-25 02:59 47.38321 -122.14572 19881 ft 445 kts 179°
2026-04-25 03:00 47.35212 -122.14317 20590 ft 450 kts 175°
2026-04-25 03:00 47.32079 -122.13857 21286 ft 454 kts 174°
2026-04-25 03:00 47.28925 -122.13324 21982 ft 459 kts 173°
2026-04-25 03:00 47.25728 -122.12743 22673 ft 464 kts 173°
2026-04-25 03:01 47.22497 -122.12143 23356 ft 469 kts 173°
2026-04-25 03:01 47.20341 -122.11740 23812 ft 473 kts 173°
2026-04-25 03:01 47.17024 -122.11109 24540 ft 477 kts 173°
2026-04-25 03:01 47.13764 -122.10472 25231 ft 481 kts 173°
2026-04-25 03:02 47.10426 -122.09809 25971 ft 485 kts 173°
2026-04-25 03:02 47.07059 -122.09124 26670 ft 489 kts 173°
2026-04-25 03:02 47.03679 -122.08425 27384 ft 493 kts 173°
2026-04-25 03:02 47.00263 -122.07765 27981 ft 496 kts 177°
2026-04-25 03:03 46.96802 -122.07504 28607 ft 498 kts 180°
2026-04-25 03:03 46.93322 -122.07246 29224 ft 503 kts 178°
2026-04-25 03:03 46.89830 -122.06744 29863 ft 507 kts 174°
2026-04-25 03:03 46.86326 -122.05992 30444 ft 511 kts 172°
2026-04-25 03:04 46.82825 -122.05054 30990 ft 513 kts 170°
2026-04-25 03:04 46.79320 -122.04014 31609 ft 514 kts 170°
2026-04-25 03:04 46.75825 -122.02946 32227 ft 513 kts 170°
2026-04-25 03:05 46.68839 -122.00829 33373 ft 512 kts 170°
2026-04-25 03:05 46.65380 -121.99870 33920 ft 510 kts 174°
2026-04-25 03:05 46.61857 -121.99488 34483 ft 504 kts 184°
2026-04-25 03:05 46.58396 -121.99928 35065 ft 497 kts 193°
2026-04-25 03:06 46.55060 -122.01185 35533 ft 491 kts 204°
2026-04-25 03:06 46.51925 -122.03100 35968 ft 488 kts 209°
2026-04-25 03:06 46.48871 -122.05236 36421 ft 487 kts 210°
2026-04-25 03:06 46.45812 -122.07336 36850 ft 487 kts 208°
2026-04-25 03:07 46.42709 -122.09327 37277 ft 488 kts 207°
2026-04-25 03:07 46.39536 -122.11127 37674 ft 490 kts 201°
2026-04-25 03:07 46.36256 -122.12264 38063 ft 494 kts 191°
2026-04-25 03:07 46.32824 -122.12568 38418 ft 497 kts 180°
2026-04-25 03:08 46.29372 -122.12015 38676 ft 501 kts 171°
2026-04-25 03:08 46.25960 -122.10922 38995 ft 502 kts 168°
2026-04-25 03:08 46.22572 -122.09719 39281 ft 503 kts 168°
2026-04-25 03:08 46.19167 -122.08585 39646 ft 501 kts 169°
2026-04-25 03:09 46.15761 -122.07581 40017 ft 498 kts 171°
2026-04-25 03:09 46.12367 -122.06686 40392 ft 495 kts 172°
2026-04-25 03:09 46.08978 -122.05853 40764 ft 493 kts 172°
2026-04-25 03:09 46.05581 -122.05047 40904 ft 494 kts 173°
2026-04-25 03:10 45.98800 -122.03455 40936 ft 493 kts 172°
2026-04-25 03:10 45.92030 -122.01855 40937 ft 494 kts 172°
2026-04-25 03:11 45.85250 -122.00245 40937 ft 494 kts 172°
2026-04-25 03:11 45.78495 -121.98643 40935 ft 495 kts 172°
2026-04-25 03:12 45.71697 -121.97036 40935 ft 495 kts 172°
2026-04-25 03:12 45.64892 -121.95430 40929 ft 495 kts 172°
2026-04-25 03:13 45.58111 -121.93835 40936 ft 496 kts 172°
2026-04-25 03:13 45.51292 -121.92236 40928 ft 496 kts 172°
2026-04-25 03:14 45.44486 -121.90652 40928 ft 496 kts 172°
2026-04-25 03:14 45.37670 -121.89065 40928 ft 495 kts 172°
2026-04-25 03:15 45.30858 -121.87479 40927 ft 495 kts 172°
2026-04-25 03:15 45.24059 -121.85898 40927 ft 495 kts 172°
2026-04-25 03:16 45.17309 -121.84333 40928 ft 494 kts 173°
2026-04-25 03:16 45.10523 -121.82763 40929 ft 493 kts 173°
2026-04-25 03:17 45.03738 -121.81198 40929 ft 493 kts 173°
2026-04-25 03:17 44.96955 -121.79637 40936 ft 493 kts 173°
2026-04-25 03:18 44.90213 -121.78088 40938 ft 493 kts 173°
2026-04-25 03:18 44.83444 -121.76538 40941 ft 492 kts 173°
2026-04-25 03:19 44.76687 -121.74993 40937 ft 492 kts 173°
2026-04-25 03:19 44.69916 -121.73450 40940 ft 491 kts 173°
2026-04-25 03:20 44.63210 -121.71934 40945 ft 491 kts 173°
2026-04-25 03:20 44.56455 -121.70407 40937 ft 491 kts 173°
2026-04-25 03:21 44.49707 -121.68881 40938 ft 491 kts 173°
2026-04-25 03:21 44.42968 -121.67358 40933 ft 490 kts 173°
2026-04-25 03:22 44.36238 -121.65841 40928 ft 490 kts 173°
2026-04-25 03:22 44.29507 -121.64310 40936 ft 490 kts 173°
2026-04-25 03:23 44.22781 -121.62750 40938 ft 490 kts 173°
2026-04-25 03:23 44.16109 -121.61200 40929 ft 489 kts 173°
2026-04-25 03:24 44.09392 -121.59645 40930 ft 489 kts 173°
2026-04-25 03:24 44.02673 -121.58094 40936 ft 489 kts 173°
2026-04-25 03:25 43.95937 -121.56544 40938 ft 489 kts 173°
2026-04-25 03:25 43.89224 -121.55002 40942 ft 489 kts 173°
2026-04-25 03:26 43.82511 -121.53464 40948 ft 489 kts 173°
2026-04-25 03:26 43.75824 -121.51935 40947 ft 489 kts 173°
2026-04-25 03:27 43.69119 -121.50406 40948 ft 489 kts 173°
2026-04-25 03:27 43.62419 -121.48881 40939 ft 489 kts 173°
2026-04-25 03:28 43.55698 -121.47355 41001 ft 489 kts 173°
2026-04-25 03:28 43.48974 -121.45835 41006 ft 489 kts 174°
2026-04-25 03:29 43.42257 -121.44325 41011 ft 489 kts 174°
2026-04-25 03:29 43.35586 -121.42824 41002 ft 488 kts 174°
2026-04-25 03:30 43.28876 -121.41314 40997 ft 488 kts 174°
2026-04-25 03:30 43.22179 -121.39810 40991 ft 487 kts 174°
2026-04-25 03:31 43.15485 -121.38310 40985 ft 487 kts 174°
2026-04-25 03:31 43.08796 -121.36815 40981 ft 487 kts 174°
2026-04-25 03:32 43.02089 -121.35319 40971 ft 487 kts 174°
2026-04-25 03:32 42.95400 -121.33830 40964 ft 487 kts 174°
2026-04-25 03:33 42.88755 -121.32355 40958 ft 486 kts 174°
2026-04-25 03:33 42.82071 -121.30876 40953 ft 486 kts 174°
2026-04-25 03:34 42.75394 -121.29398 40944 ft 485 kts 174°
2026-04-25 03:34 42.68754 -121.27928 40941 ft 485 kts 174°
2026-04-25 03:35 42.62091 -121.26456 40934 ft 485 kts 174°
2026-04-25 03:35 42.55406 -121.24982 40933 ft 485 kts 174°
2026-04-25 03:36 42.48779 -121.23524 40926 ft 484 kts 174°
2026-04-25 03:36 42.42110 -121.22060 40925 ft 485 kts 174°
2026-04-25 03:37 42.35454 -121.20602 40923 ft 484 kts 174°
2026-04-25 03:37 42.28794 -121.19147 40920 ft 484 kts 174°
2026-04-25 03:38 42.22141 -121.17696 40916 ft 484 kts 174°
2026-04-25 03:38 42.15486 -121.16248 40915 ft 484 kts 174°
2026-04-25 03:39 42.08889 -121.14815 40907 ft 483 kts 174°
2026-04-25 03:39 42.02237 -121.13381 40906 ft 483 kts 174°
2026-04-25 03:40 41.95580 -121.11947 40906 ft 483 kts 175°
2026-04-25 03:40 41.88957 -121.10518 40914 ft 481 kts 175°
2026-04-25 03:41 41.82340 -121.09094 40915 ft 481 kts 175°
2026-04-25 03:41 41.75767 -121.07682 40915 ft 482 kts 175°
2026-04-25 03:42 41.69130 -121.06259 40915 ft 482 kts 175°
2026-04-25 03:42 41.62513 -121.04843 40907 ft 481 kts 175°
2026-04-25 03:43 41.55899 -121.03431 40908 ft 481 kts 175°
2026-04-25 03:43 41.49285 -121.02021 40915 ft 481 kts 175°
2026-04-25 03:44 41.42668 -121.00614 40915 ft 481 kts 175°
2026-04-25 03:44 41.36098 -120.99220 40915 ft 481 kts 175°
2026-04-25 03:45 41.29474 -120.97817 40915 ft 480 kts 175°
2026-04-25 03:45 41.22875 -120.96425 40916 ft 480 kts 175°
2026-04-25 03:46 41.17389 -120.95274 40916 ft 480 kts 175°
2026-04-25 03:46 41.09724 -120.93665 40926 ft 477 kts 175°
2026-04-25 03:47 41.03219 -120.92313 40923 ft 467 kts 177°
2026-04-25 03:47 40.97889 -120.91633 40923 ft 458 kts 181°
2026-04-25 03:48 40.91570 -120.91156 40931 ft 451 kts 182°
2026-04-25 03:48 40.85348 -120.90706 40932 ft 444 kts 182°
2026-04-25 03:49 40.79225 -120.90229 40932 ft 437 kts 182°
2026-04-25 03:49 40.73202 -120.89745 40939 ft 430 kts 182°
2026-04-25 03:50 40.67310 -120.89270 40942 ft 423 kts 182°
2026-04-25 03:50 40.61478 -120.88801 40941 ft 415 kts 182°
2026-04-25 03:51 40.55760 -120.88342 40942 ft 406 kts 182°
2026-04-25 03:51 40.50216 -120.87897 40942 ft 397 kts 182°
2026-04-25 03:52 40.44747 -120.87460 40941 ft 388 kts 182°
2026-04-25 03:52 40.39405 -120.87033 40941 ft 379 kts 182°
2026-04-25 03:53 40.36821 -120.86828 40432 ft 379 kts 182°
2026-04-25 03:53 40.33998 -120.86632 37961 ft 437 kts 182°
2026-04-25 03:53 40.27958 -120.86156 37924 ft 431 kts 182°
2026-04-25 03:54 40.22008 -120.85661 37948 ft 426 kts 182°
2026-04-25 03:54 40.16121 -120.85195 37954 ft 420 kts 182°
2026-04-25 03:55 40.10316 -120.84734 37962 ft 414 kts 182°
2026-04-25 03:55 40.04593 -120.84286 37947 ft 409 kts 182°
2026-04-25 03:56 39.98941 -120.83846 37965 ft 404 kts 182°
2026-04-25 03:56 39.93300 -120.83413 37433 ft 412 kts 182°
2026-04-25 03:57 39.90440 -120.83196 37094 ft 420 kts 182°
2026-04-25 03:57 39.87524 -120.82961 36984 ft 420 kts 182°
2026-04-25 03:57 39.81714 -120.82493 36968 ft 416 kts 182°
2026-04-25 03:58 39.75960 -120.82030 36967 ft 413 kts 182°
2026-04-25 03:58 39.70233 -120.81586 36972 ft 410 kts 182°
2026-04-25 03:59 39.64567 -120.81128 36983 ft 405 kts 182°
2026-04-25 03:59 39.58973 -120.80694 36980 ft 403 kts 182°
2026-04-25 04:00 39.53389 -120.80267 36987 ft 400 kts 183°
2026-04-25 04:00 39.47849 -120.79841 36988 ft 397 kts 183°
2026-04-25 04:01 39.42349 -120.79427 36990 ft 394 kts 183°
2026-04-25 04:01 39.36865 -120.79012 36045 ft 406 kts 183°
2026-04-25 04:02 39.34049 -120.78801 35492 ft 402 kts 182°
2026-04-25 04:02 39.31214 -120.78580 35128 ft 410 kts 182°
2026-04-25 04:02 39.25561 -120.78135 35014 ft 405 kts 182°
2026-04-25 04:03 39.19955 -120.77704 35010 ft 404 kts 182°
2026-04-25 04:03 39.14341 -120.77264 34981 ft 404 kts 182°
2026-04-25 04:04 39.08735 -120.76837 34980 ft 402 kts 182°
2026-04-25 04:04 39.03178 -120.76408 34978 ft 402 kts 183°
2026-04-25 04:05 38.97593 -120.75967 34971 ft 401 kts 182°
2026-04-25 04:05 38.92020 -120.75560 34961 ft 400 kts 182°
2026-04-25 04:06 38.86492 -120.75142 34956 ft 400 kts 182°
2026-04-25 04:06 38.80945 -120.74713 34971 ft 399 kts 183°
2026-04-25 04:07 38.75392 -120.74297 34969 ft 398 kts 183°
2026-04-25 04:07 38.69892 -120.73879 34972 ft 395 kts 183°
2026-04-25 04:08 38.64407 -120.73449 34969 ft 394 kts 183°
2026-04-25 04:08 38.58969 -120.73048 34970 ft 393 kts 183°
2026-04-25 04:09 38.53513 -120.72627 34964 ft 392 kts 183°
2026-04-25 04:09 38.48058 -120.72222 34964 ft 392 kts 183°
2026-04-25 04:10 38.42612 -120.71813 34955 ft 391 kts 184°
2026-04-25 04:10 38.37179 -120.71397 34953 ft 390 kts 183°
2026-04-25 04:11 38.29066 -120.70791 34955 ft 389 kts 183°
2026-04-25 04:12 38.23708 -120.70396 34954 ft 388 kts 183°
2026-04-25 04:12 38.18321 -120.69996 34950 ft 386 kts 183°
2026-04-25 04:13 38.12951 -120.69598 34940 ft 386 kts 183°
2026-04-25 04:13 38.07589 -120.69194 34941 ft 385 kts 184°
2026-04-25 04:14 38.02238 -120.68800 34948 ft 385 kts 184°
2026-04-25 04:14 37.96916 -120.68398 34944 ft 384 kts 184°
2026-04-25 04:15 37.91583 -120.68001 34940 ft 382 kts 184°
2026-04-25 04:15 37.86263 -120.67611 34937 ft 383 kts 184°
2026-04-25 04:16 37.80943 -120.67218 34932 ft 382 kts 184°
2026-04-25 04:16 37.75627 -120.66824 34926 ft 382 kts 185°
2026-04-25 04:17 37.70308 -120.66434 34926 ft 382 kts 185°
2026-04-25 04:17 37.64999 -120.66042 34930 ft 382 kts 185°
2026-04-25 04:18 37.59692 -120.65651 34922 ft 381 kts 185°
2026-04-25 04:18 37.54435 -120.65281 34921 ft 380 kts 185°
2026-04-25 04:19 37.49163 -120.64882 34915 ft 380 kts 185°
2026-04-25 04:19 37.43889 -120.64488 34918 ft 378 kts 185°
2026-04-25 04:20 37.38611 -120.64106 34919 ft 379 kts 185°
2026-04-25 04:20 37.33334 -120.63715 34917 ft 379 kts 184°
2026-04-25 04:21 37.28088 -120.62535 34905 ft 389 kts 174°
2026-04-25 04:21 37.22855 -120.60779 34906 ft 390 kts 173°
2026-04-25 04:22 37.17619 -120.59001 34911 ft 390 kts 174°
2026-04-25 04:22 37.12390 -120.57265 34910 ft 389 kts 174°
2026-04-25 04:23 37.07145 -120.55541 34913 ft 388 kts 175°
2026-04-25 04:23 37.01946 -120.53855 34915 ft 386 kts 175°
2026-04-25 04:24 36.96725 -120.52156 34918 ft 386 kts 175°
2026-04-25 04:24 36.91540 -120.50462 34916 ft 384 kts 175°
2026-04-25 04:25 36.86363 -120.48779 34914 ft 385 kts 175°
2026-04-25 04:25 36.81167 -120.47090 34921 ft 385 kts 175°
2026-04-25 04:26 36.76008 -120.45421 34915 ft 385 kts 175°
2026-04-25 04:26 36.70823 -120.43745 34915 ft 385 kts 176°
2026-04-25 04:27 36.65623 -120.42063 34908 ft 385 kts 176°
2026-04-25 04:27 36.60432 -120.40390 34908 ft 383 kts 176°
2026-04-25 04:28 36.55272 -120.38718 34904 ft 383 kts 176°
2026-04-25 04:28 36.50135 -120.37061 34898 ft 383 kts 176°
2026-04-25 04:29 36.44964 -120.35404 34899 ft 384 kts 177°
2026-04-25 04:29 36.39797 -120.33755 34899 ft 383 kts 177°
2026-04-25 04:30 36.34622 -120.32103 34897 ft 384 kts 178°
2026-04-25 04:30 36.29454 -120.30448 34895 ft 383 kts 177°
2026-04-25 04:31 36.24318 -120.28806 34891 ft 383 kts 178°
2026-04-25 04:31 36.20027 -120.27434 34888 ft 381 kts 178°
2026-04-25 04:32 36.14887 -120.25798 34898 ft 381 kts 178°
2026-04-25 04:32 36.08912 -120.23894 34899 ft 382 kts 178°
2026-04-25 04:33 36.04642 -120.22538 34908 ft 380 kts 178°
2026-04-25 04:33 35.99509 -120.20906 34913 ft 379 kts 178°
2026-04-25 04:34 35.94398 -120.19281 34917 ft 380 kts 178°
2026-04-25 04:34 35.89291 -120.17665 34928 ft 378 kts 178°
2026-04-25 04:35 35.84196 -120.16053 34934 ft 378 kts 178°
2026-04-25 04:35 35.79102 -120.14440 34943 ft 378 kts 178°
2026-04-25 04:36 35.74000 -120.12835 34945 ft 377 kts 178°
2026-04-25 04:36 35.68893 -120.11226 34942 ft 378 kts 178°
2026-04-25 04:37 35.63914 -120.08953 34959 ft 396 kts 163°
2026-04-25 04:37 35.59161 -120.05384 34968 ft 402 kts 159°
2026-04-25 04:38 35.54451 -120.01667 34965 ft 403 kts 159°
2026-04-25 04:38 35.49698 -119.98006 34967 ft 403 kts 160°
2026-04-25 04:39 35.44934 -119.94383 34963 ft 404 kts 160°
2026-04-25 04:39 35.42549 -119.92579 34775 ft 409 kts 160°
2026-04-25 04:39 35.40111 -119.90734 34599 ft 414 kts 160°
2026-04-25 04:39 35.37644 -119.88867 34436 ft 418 kts 160°
2026-04-25 04:40 35.35167 -119.86998 34446 ft 418 kts 160°
2026-04-25 04:40 35.30206 -119.83248 34452 ft 420 kts 160°
2026-04-25 04:41 35.25273 -119.79218 34286 ft 434 kts 154°
2026-04-25 04:41 35.22868 -119.77001 34105 ft 438 kts 153°
2026-04-25 04:41 35.20465 -119.74727 33918 ft 437 kts 153°
2026-04-25 04:41 35.18076 -119.72439 33729 ft 435 kts 153°
2026-04-25 04:42 35.15695 -119.70168 33545 ft 433 kts 153°
2026-04-25 04:42 35.13307 -119.67902 33354 ft 433 kts 153°
2026-04-25 04:42 35.10931 -119.65662 33170 ft 430 kts 153°
2026-04-25 04:42 35.08556 -119.63429 32966 ft 430 kts 153°
2026-04-25 04:43 35.06187 -119.61209 32788 ft 429 kts 153°
2026-04-25 04:43 35.03821 -119.59001 32600 ft 426 kts 153°
2026-04-25 04:43 35.01469 -119.56809 32413 ft 426 kts 153°
2026-04-25 04:43 34.99120 -119.54623 32224 ft 423 kts 153°
2026-04-25 04:44 34.96780 -119.52445 32038 ft 423 kts 153°
2026-04-25 04:44 34.94439 -119.50260 31856 ft 421 kts 153°
2026-04-25 04:44 34.92120 -119.48105 31645 ft 418 kts 152°
2026-04-25 04:44 34.89807 -119.45999 31455 ft 417 kts 153°
2026-04-25 04:45 34.87478 -119.43919 31232 ft 415 kts 153°
2026-04-25 04:45 34.85139 -119.41842 30671 ft 414 kts 153°
2026-04-25 04:45 34.82831 -119.39779 30123 ft 410 kts 153°
2026-04-25 04:45 34.80574 -119.37760 29578 ft 405 kts 152°
2026-04-25 04:46 34.78285 -119.35710 29019 ft 401 kts 152°
2026-04-25 04:46 34.76076 -119.33730 28475 ft 397 kts 152°
2026-04-25 04:46 34.73844 -119.31753 27823 ft 394 kts 152°
2026-04-25 04:46 34.71624 -119.29820 27170 ft 391 kts 152°
2026-04-25 04:47 34.69353 -119.27856 26523 ft 413 kts 152°
2026-04-25 04:47 34.66985 -119.25794 25711 ft 420 kts 151°
2026-04-25 04:47 34.64611 -119.23721 24895 ft 417 kts 151°
2026-04-25 04:47 34.62252 -119.21682 24062 ft 413 kts 151°
2026-04-25 04:48 34.59931 -119.19671 23264 ft 408 kts 151°
2026-04-25 04:48 34.57670 -119.17717 22682 ft 400 kts 151°
2026-04-25 04:48 34.55412 -119.15752 22124 ft 398 kts 150°
2026-04-25 04:48 34.53161 -119.13767 21568 ft 394 kts 150°
2026-04-25 04:49 34.50977 -119.11838 21028 ft 390 kts 150°
2026-04-25 04:49 34.48797 -119.09905 20474 ft 387 kts 149°
2026-04-25 04:49 34.46637 -119.07990 19917 ft 383 kts 149°
2026-04-25 04:49 34.44492 -119.06096 19368 ft 379 kts 149°
2026-04-25 04:50 34.42361 -119.04235 18817 ft 376 kts 150°
2026-04-25 04:50 34.40249 -119.02401 18319 ft 370 kts 150°
2026-04-25 04:50 34.38146 -119.00581 17892 ft 369 kts 150°
2026-04-25 04:50 34.36069 -118.98780 17472 ft 366 kts 149°
2026-04-25 04:51 34.34034 -118.96999 17056 ft 364 kts 149°
2026-04-25 04:51 34.31997 -118.95173 16623 ft 362 kts 148°
2026-04-25 04:51 34.29981 -118.93348 16181 ft 360 kts 148°
2026-04-25 04:51 34.27990 -118.91543 15761 ft 357 kts 148°
2026-04-25 04:52 34.26011 -118.89745 15342 ft 354 kts 147°
2026-04-25 04:52 34.24058 -118.87952 14907 ft 351 kts 147°
2026-04-25 04:52 34.22127 -118.86168 14481 ft 349 kts 147°
2026-04-25 04:52 34.20206 -118.84380 13878 ft 345 kts 143°
2026-04-25 04:53 34.18669 -118.82177 13658 ft 347 kts 129°
2026-04-25 04:53 34.17097 -118.79977 13404 ft 342 kts 139°
2026-04-25 04:53 34.15420 -118.78085 13398 ft 314 kts 142°
2026-04-25 04:53 34.13859 -118.76378 13396 ft 300 kts 142°
2026-04-25 04:54 34.12314 -118.74696 13398 ft 299 kts 142°
2026-04-25 04:54 34.10779 -118.73038 13221 ft 292 kts 144°
2026-04-25 04:54 34.09108 -118.71527 12905 ft 306 kts 149°
2026-04-25 04:54 34.07316 -118.70021 12929 ft 323 kts 149°
2026-04-25 04:55 34.05464 -118.68406 12892 ft 337 kts 147°
2026-04-25 04:55 34.03763 -118.66587 12595 ft 321 kts 132°
2026-04-25 04:55 34.02765 -118.64184 12335 ft 326 kts 107°
2026-04-25 04:55 34.02337 -118.61506 12050 ft 326 kts 98°
2026-04-25 04:56 34.02094 -118.58792 11718 ft 324 kts 96°
2026-04-25 04:56 34.01894 -118.56093 11413 ft 321 kts 96°
2026-04-25 04:56 34.01690 -118.53419 11148 ft 319 kts 96°
2026-04-25 04:56 34.01474 -118.50764 10819 ft 318 kts 96°
2026-04-25 04:57 34.01250 -118.48119 10355 ft 313 kts 97°
2026-04-25 04:57 34.01045 -118.45555 9898 ft 302 kts 94°
2026-04-25 04:57 34.00908 -118.43094 9458 ft 289 kts 95°
2026-04-25 04:57 34.00763 -118.40758 9180 ft 264 kts 90°
2026-04-25 04:58 34.00914 -118.38595 9125 ft 254 kts 82°
2026-04-25 04:58 34.01169 -118.36506 9061 ft 266 kts 81°
2026-04-25 04:58 34.01434 -118.34337 8979 ft 253 kts 80°
2026-04-25 04:58 34.01739 -118.32247 8514 ft 254 kts 79°
2026-04-25 04:59 34.02063 -118.30147 8065 ft 255 kts 79°
2026-04-25 04:59 34.02376 -118.28049 7657 ft 253 kts 80°
2026-04-25 04:59 34.02698 -118.25967 7208 ft 253 kts 79°
2026-04-25 04:59 34.03013 -118.23912 6819 ft 250 kts 79°
2026-04-25 05:00 34.03347 -118.21837 6362 ft 252 kts 78°
2026-04-25 05:00 34.03691 -118.19759 5896 ft 252 kts 79°
2026-04-25 05:00 34.04010 -118.17709 5449 ft 246 kts 80°
2026-04-25 05:00 34.03963 -118.15694 5042 ft 238 kts 107°
2026-04-25 05:01 34.03131 -118.14006 4510 ft 236 kts 138°
2026-04-25 05:01 34.01721 -118.13061 4060 ft 232 kts 167°
2026-04-25 05:01 34.00170 -118.12695 3845 ft 225 kts 170°
2026-04-25 05:01 33.98638 -118.12612 3536 ft 224 kts 191°
2026-04-25 05:02 33.97237 -118.13384 3180 ft 220 kts 220°
2026-04-25 05:02 33.96252 -118.14770 3040 ft 220 kts 240°
2026-04-25 05:02 33.95832 -118.16515 3169 ft 220 kts 263°
2026-04-25 05:02 33.95660 -118.18269 3106 ft 199 kts 264°
2026-04-25 05:03 33.95541 -118.19899 3054 ft 201 kts 266°
2026-04-25 05:03 33.95432 -118.21653 3140 ft 224 kts 264°
2026-04-25 05:03 33.95256 -118.23525 2586 ft 218 kts 263°
2026-04-25 05:03 33.95073 -118.25233 2187 ft 197 kts 262°
2026-04-25 05:04 33.94906 -118.26851 1964 ft 193 kts 262°
2026-04-25 05:04 33.94750 -118.28399 1688 ft 175 kts 262°
2026-04-25 05:04 33.94600 -118.29803 1484 ft 165 kts 262°
2026-04-25 05:04 33.94465 -118.31150 1267 ft 160 kts 261°
2026-04-25 05:05 33.94324 -118.32489 1059 ft 161 kts 262°
2026-04-25 05:05 33.94190 -118.33817 869 ft 160 kts 262°
2026-04-25 05:05 33.94059 -118.35136 631 ft 160 kts 262°
2026-04-25 05:05 33.93921 -118.36474 482 ft 160 kts 261°
2026-04-25 05:06 33.93775 -118.37785 272 ft 159 kts 262°
2026-04-25 05:06 33.93647 -118.39110 102 ft 159 kts 262°
2026-04-25 05:06 33.93517 -118.40404 102 ft 145 kts 263°
2026-04-25 05:06 33.93414 -118.41425 101 ft 85 kts 262°
2026-04-25 05:07 33.93366 -118.41883 100 ft 28 kts 263°
2026-04-25 05:07 33.93375 -118.41947 100 ft 3 kts 320°
2026-04-25 05:07 33.93420 -118.41976 102 ft 10 kts 329°
2026-04-25 05:07 33.93452 -118.42018 102 ft 5 kts 298°
2026-04-25 05:08 33.93458 -118.42045 101 ft 1 kts 276°
2026-04-25 05:08 33.93457 -118.42046 102 ft 0 kts 271°
2026-04-25 05:11 33.93457 -118.42062 101 ft 5 kts 267°
2026-04-25 05:11 33.93454 -118.42136 101 ft 10 kts 278°
2026-04-25 05:11 33.93478 -118.42175 102 ft 7 kts 328°
2026-04-25 05:12 33.93621 -118.42201 101 ft 7 kts
2026-04-25 05:12 33.93651 -118.42168 102 ft 7 kts 63°
2026-04-25 05:12 33.93664 -118.42106 101 ft 9 kts 81°
2026-04-25 05:12 33.93669 -118.42045 103 ft 6 kts 83°
2026-04-25 05:13 33.93671 -118.42033 102 ft 0 kts 82°
2026-04-25 05:13 33.93672 -118.42025 104 ft 1 kts 82°
2026-04-25 05:13 33.93672 -118.42022 102 ft 0 kts 82°
2026-04-25 05:15 33.93666 -118.41953 104 ft 5 kts 131°
2026-04-25 05:15 33.93606 -118.41926 106 ft 12 kts 168°
2026-04-25 05:15 33.93509 -118.41908 104 ft 17 kts 173°
2026-04-25 05:15 33.93381 -118.41890 100 ft 18 kts 173°
2026-04-25 05:16 33.93293 -118.41818 100 ft 14 kts 129°
2026-04-25 05:16 33.93264 -118.41724 100 ft 11 kts 93°
2026-04-25 05:16 33.93269 -118.41647 100 ft 9 kts 84°
2026-04-25 05:16 33.93277 -118.41554 103 ft 12 kts 83°
2026-04-25 05:17 33.93287 -118.41458 100 ft 11 kts 83°
2026-04-25 05:17 33.93296 -118.41372 100 ft 11 kts 82°
2026-04-25 05:17 33.93307 -118.41275 104 ft 12 kts 83°
2026-04-25 05:17 33.93317 -118.41177 102 ft 12 kts 83°
2026-04-25 05:18 33.93326 -118.41078 101 ft 12 kts 83°
2026-04-25 05:18 33.93337 -118.40979 100 ft 12 kts 83°
2026-04-25 05:18 33.93347 -118.40879 103 ft 12 kts 83°
2026-04-25 05:18 33.93354 -118.40815 100 ft 12 kts 83°
2026-04-25 05:19 33.93364 -118.40717 101 ft 12 kts 83°
2026-04-25 05:19 33.93374 -118.40618 101 ft 12 kts 83°
2026-04-25 05:19 33.93385 -118.40516 101 ft 12 kts 83°
2026-04-25 05:19 33.93400 -118.40378 101 ft 12 kts 83°
2026-04-25 05:20 33.93407 -118.40308 101 ft 12 kts 83°
2026-04-25 05:20 33.93418 -118.40205 101 ft 12 kts 83°
2026-04-25 05:20 33.93428 -118.40102 101 ft 12 kts 83°
2026-04-25 05:20 33.93437 -118.40001 101 ft 12 kts 83°
2026-04-25 05:21 33.93447 -118.39900 101 ft 12 kts 83°
2026-04-25 05:21 33.93457 -118.39799 101 ft 12 kts 83°
2026-04-25 05:21 33.93467 -118.39696 103 ft 12 kts 83°
2026-04-25 05:21 33.93477 -118.39597 102 ft 12 kts 83°
2026-04-25 05:22 33.93487 -118.39500 101 ft 12 kts 83°
2026-04-25 05:22 33.93498 -118.39403 101 ft 12 kts 83°
2026-04-25 05:22 33.93508 -118.39302 101 ft 12 kts 83°
2026-04-25 05:22 33.93519 -118.39200 100 ft 12 kts 83°
2026-04-25 05:23 33.93529 -118.39099 102 ft 12 kts 83°
2026-04-25 05:23 33.93540 -118.39000 103 ft 12 kts 83°
2026-04-25 05:23 33.93550 -118.38901 103 ft 12 kts 83°
2026-04-25 05:23 33.93556 -118.38824 100 ft 2 kts 97°
2026-04-25 05:24 33.93538 -118.38798 100 ft 7 kts 145°
2026-04-25 05:24 33.93492 -118.38786 100 ft 4 kts 172°
2026-04-25 05:24 33.93469 -118.38782 100 ft 3 kts 173°
2026-04-25 05:24 33.93441 -118.38778 100 ft 4 kts 173°
2026-04-25 05:25 33.93421 -118.38775 100 ft 2 kts 173°
2026-04-25 05:25 33.93412 -118.38774 100 ft 0 kts 173°
2026-04-25 05:25 33.93411 -118.38774 100 ft 0 kts 173°
2026-04-25 05:25 33.93407 -118.38773 100 ft 0 kts 173°